Other Public Products
Issued by NWS Grand Forks, ND

Home | Current Version | Previous Version | Text Only | Print | Product List | Glossary On
Versions: 1 2 3 4 5 6 7 8 9 10 11 12 13 14 15 16 17 18 19 20 21 22 23 24 25 26 27 28 29 30 31 32 33 34 35 36 37 38 39 40 41 42 43 44 45 46 47 48 49 50
000
FPUS83 KFGF 300131
OPUFGF
PRAIRIE TO PINES WEATHER ROUNDUP
NATIONAL WEATHER SERVICE EASTERN NORTH DAKOTA/GRAND FORKS ND
800 PM CDT SUN MAY 29 2016

 **SATELLITE DATA USED TO AUGMENT SKY COVER AT AUTOMATED STATIONS**
 *****  WEATHER ACROSS EASTERN NORTH DAKOTA  *****

CITY           SKY/WX    TMP DP  RH WIND       PRES   REMARKS
GRAND FORKS    SUNNY     72  50  45 NW6       29.90R
GRAND FORKS AF SUNNY     73  44  35 NW5       29.91R
GRAND CITY NWS   N/A     68 N/A N/A N1          N/A
BUXTON           N/A     73  41  31 NW5         N/A
DEVILS LAKE    SUNNY     72  39  30 NW12      29.93S
FARGO          SUNNY     76  46  34 NW6       29.91S
WAHPETON ARPT  CLEAR     72  37  28 NW8       29.94S
$$

 *****  WEATHER ACROSS CENTRAL AND WESTERN NORTH DAKOTA  *****

CITY           SKY/WX    TMP DP  RH WIND       PRES   REMARKS
JAMESTOWN      SUNNY     71  45  39 NW8       29.94S
BISMARCK       SUNNY     77  45  32 SW5       29.92F
MINOT          SUNNY     76  40  27 W9        29.91F
MINOT AFB      SUNNY     74  40  29 W8        29.90F
GARRISON         N/A     75  40  28 NW8       29.92F
WILLISTON      SUNNY     75  34  22 NW12      29.91F
DICKINSON      MOSUNNY   74  36  25 N7        29.93S
HETTINGER      PTSUNNY   68  49  50 SE14      29.97S
$$

 *****  OTHER OBSERVATIONS NORTHEAST NORTH DAKOTA  *****

CITY           SKY/WX    TMP DP  RH WIND       PRES   REMARKS
WALHALLA       FAIR      70  66  88 NW7       29.90R
LANGDON        FAIR      68  46  45 NW7       29.92S
CAVALIER       FAIR      72  48  43 NW7       29.89S
GRAFTON        FAIR      70  54  56 N5        29.91S
CANDO          FAIR      68  39  34 W9        29.94S
FORT TOTTEN      N/A     72  40  31 NW5       29.95S
ROLLA          FAIR      68  37  32 W10       29.93S
RUGBY          FAIR      70  41  35 NW8       29.92S
 ***** THE ABOVE OBSERVATIONS ARE NON NWS ARE NOT QUALITY
        CONTROLLED AND MAY MIS-REPORT RAIN FOR SNOW...
$$

 *****  OTHER OBSERVATIONS SOUTHEAST NORTH DAKOTA *****

CITY           SKY/WX    TMP DP  RH WIND       PRES   REMARKS
COOPERSTOWN    NOT AVBL
VALLEY CITY    FAIR      72  43  35 NW9       29.96S
OAKES            N/A    N/A N/A N/A MISG        N/A
GWINNER        FAIR      73  46  38 NW8       29.95S
SHEYENNE NWR     N/A     77  43  29 NW7       29.95S
BUFFALO          N/A     73  38  27 W6          N/A
WYNDMERE         N/A     77  41  27 NW9         N/A
 ***** THE ABOVE OBSERVATIONS ARE NON NWS ARE NOT QUALITY
       CONTROLLED AND MAY MIS-REPORT RAIN FOR SNOW...
$$

  *****  WEATHER ACROSS NORTHERN MINNESOTA  *****

CITY           SKY/WX    TMP DP  RH WIND       PRES   REMARKS
FLAG ISLAND    CLEAR     64  54  68 NW10      29.86S
WARROAD        CLEAR     66  54  63 W6        29.89R
ROSEAU         SUNNY     66  55  68 W9        29.89S
HALLOCK        MOSUNNY   70  52  52 NW5       29.89S
THF RVR FALLS  SUNNY     68  50  52 W6        29.93R
HALSTAD        NOT AVBL
FOSSTON        CLEAR     68  54  60 NW5       29.94R
BAUDETTE       PTCLDY    66  54  65 NW6       29.88R
WASKISH        CLEAR     66  55  68 W8        29.90S
CROOKSTON      SUNNY     70  54  56 N5        29.91S
$$
  *****  WEATHER ACROSS CENTRAL AND WEST MINNESOTA  *****

CITY           SKY/WX    TMP DP  RH WIND       PRES   REMARKS
BEMIDJI        PTCLDY    66  50  56 NW6       29.93S
PARK RAPIDS    CLEAR     69  52  54 NW9       29.94S
WADENA         CLEAR     68  50  52 NW5       29.95R
DETROIT LAKES  CLEAR     70  46  43 NW5       29.95S
MOORHEAD       CLEAR     72  54  53 NW5       29.93S
FERGUS FALLS   CLEAR     73  45  35 NW8       29.90S
ELBOW LAKE     FAIR      72  47  42 NW6       29.95S
MORRIS MN      CLEAR     72  46  40 NW6       29.94S
STAPLES        CLEAR     66  52  59 N5        29.95R
WHEATON        CLEAR     75  46  35 NW6       29.96S
$$
  *****  WEATHER ELSEWHERE ACROSS MINNESOTA  *****

CITY           SKY/WX    TMP DP  RH WIND       PRES   REMARKS
DULUTH         PTCLDY    67  52  58 NW10      29.90R
INTRNTL FALLS  MOCLDY    65  54  67 NW6       29.87S
ELY            PTCLDY    61  54  77 W6        29.89S
CLOQUET        CLEAR     66  52  59 W6        29.92R
BRAINERD       CLEAR     69  51  52 W8        29.94S
HIBBING        CLEAR     64  52  64 W6        29.90R
ALEXANDRIA     CLEAR     71  50  47 N7        29.96S
SAINT CLOUD    CLEAR     73  55  53 NW8       29.93S
MINNEAPOLIS    PTCLDY    73  57  57 N9        29.94R
$$

  *****  WEATHER ACROSS SOUTH DAKOTA  *****

CITY           SKY/WX    TMP DP  RH WIND       PRES   REMARKS
SIOUX FALLS    CLEAR     74  54  49 NE5       29.99S
BROOKINGS      CLEAR     73  52  47 NW7       29.99F
WATERTOWN      CLEAR     73  47  39 NW7       29.98S
HURON          SUNNY     75  49  39 S3        29.97S
SISSETON         N/A     77  42  28 NW9       29.94S
ABERDEEN       SUNNY     75  47  36 W7        29.96F
MITCHELL       CLEAR     76  56  49 E3        29.99S
PIERRE         MOSUNNY   70  54  56 E8        29.95S
MOBRIDGE       LGT RAIN  64  56  75 SE10      29.97S
RAPID CITY     SUNNY     73  52  47 E9        29.96F
$$

  *****  SOME WEATHER IN NEARBY STATES *****

CITY           SKY/WX    TMP DP  RH WIND       PRES   REMARKS
GLASGOW MT     SUNNY     73  36  25 W13       29.90S
GREAT FALLS MT MOSUNNY   64  41  42 S9        29.94S
CHEYENNE WY    PTSUNNY   59  40  49 W15G25    30.14S
SCOTTSBLUFF NE CLOUDY    73  42  32 S8        29.99F
OMAHA NE       CLOUDY    80  63  55 E6        29.98R
DES MOINES IA  PTCLDY    80  54  40 W5        29.99S
DAVENPORT IA   CLEAR     77  56  48 W7        30.00S
CHICAGO IL     PTCLDY    76  57  51 W7        29.98R
EAU CLAIRE WI  CLEAR     71  57  61 W6        29.92S
LA CROSSE WI   PTCLDY    73  59  61 NW6       29.94S
$$

  *****  SOME NATIONAL WEATHER *****

CITY           SKY/WX    TMP DP  RH WIND       PRES   REMARKS
LA GUARDIA NY  CLOUDY    73  71  93 S16G22    30.05F
RALEIGH NC     CLOUDY    68  66  93 VRB3      30.05R
ATLANTA GA     PTCLDY    80  65  59 SE6       30.04S
NEW ORLEANS LA MOCLDY    82  72  71 S7        30.01F
OKLAHOMA CITY  CLOUDY    77  66  68 SE7       30.03S
ALBUQUERQUE NM MOSUNNY   83  16   8 S16       30.01F
SALT LAKE CITY CLOUDY    71  42  35 SE21G28   30.01R
LOS ANGELES CA MOSUNNY   64  54  69 W15       29.97S
BOISE ID       MOSUNNY   79  30  16 NW12G17   29.92F
SEATTLE WA     MOSUNNY   63  42  46 N12       30.19R
$$

*** WEATHER ACROSS MANITOBA...SASKATCHEWAN AND ONTARIO ***
                ***ONTARIO***

CITY           SKY/WX    TMP DP  RH WIND       PRES   REMARKS
GERALDTON      DRZL/FOG  54  54 100 NW8       29.73S VSB 3/4
THUNDER BAY    MOCLDY    63  57  82 W12G18    29.78R
SIOUX LOOKOUT  CLOUDY    55  54  94 NW7       29.82R
TORONTO        MOCLDY    77  63  61 SW12G21   29.93R
BIG TROUT LK   LGT RAIN  45  39  81 NE7       29.90S
PICKLE LAKE    DRIZZLE   48  48 100 N2        29.80S FOG
DRYDEN         CLOUDY    57  54  88 W8G17     29.84R
KENORA         MOCLDY    59  54  82 NW8       29.87S
$$
                *** MANITOBA***

CITY           SKY/WX    TMP DP  RH WIND       PRES   REMARKS
BRANDON        MOSUNNY   72  45  37 W9        29.88F
DAUPHIN        SUNNY     63  54  72 E9        29.88F
ISLAND LAKE    LGT RAIN  54  54 100 S2        29.92S
PILOT MOUND      N/A     68  43  40 NW8         N/A
THE PAS        DRIZZLE   50  46  87 N3        29.92S
THOMPSON       LGT RAIN  48  46  93 NE9       29.97R
WINNIPEG       MOSUNNY   66  54  63 N12       29.89R
LYNN LAKE      CLOUDY    48  46  93 E9        29.99S
CHURCHILL      CLOUDY    28  28 100 NE15      30.19  WCI  17
GILLAM         LGT RAIN  45  41  87 NE13      30.02F
$$
                ***SASKATCHEWAN***

CITY           SKY/WX    TMP DP  RH WIND       PRES   REMARKS
ESTEVAN        MOSUNNY   72  43  35 W14       29.90S
KINDERSLEY     MOSUNNY   70  34  26 S5        29.84S
LLOYDMINSTER   MOSUNNY   64  46  52 E10       29.86F
PRINCE ALBERT  PTSUNNY   57  48  72 NE10      29.90R
REGINA         MOSUNNY   70  39  32 W9        29.88S
YORKTON        MOSUNNY   66  48  52 N8        29.86S   C1F1C2F2C3F3C4F4C5F5C6F6C7F7C8F8C9F9CaFaCbFbCcFcCdFdCe!



USA.gov is the U.S. government's official web portal to all federal, state and local government web resources and services.